Current Weather Conditions by Major Hwy


I-84 West to East [Columbia River Gorge] 600 PM PST MON FEB 24 2020 ELEVA CITY SKY/WX TMP DP RH WIND PRES REMARKS 10 ASTORIA, OR PTCLDY 45 38 76 CALM 30.60F 20 KELSO CLOUDY 47 38 71 CALM 30.62R 40 PORTLAND, OR CLOUDY 48 36 63 NW3 30.62S 30 TROUTDALE, OR CLOUDY 48 34 58 NE5 30.62S 240 THE DALLES, OR MOCLDY 44 33 65 NW17 30.55S 620 HERMISTON, OR PTCLDY 44 29 55 SW9 30.49R 1,480 PENDLETON, OR PTCLDY 37 26 64 W10 30.48R 2,710 LA GRANDE PTCLDY 37 24 59 NW13 30.46R WCI 29 3,370 BAKER CITY PTCLDY 34 20 56 CALM 30.43R 2,190 ONTARIO CLEAR 39 19 44 N12 30.45R WCI 32
I-90 West to East 600 PM PST MON FEB 24 2020 ELEVA CITY SKY/WX TMP DP RH WIND PRES REMARKS 30 SEATAC AIRPORT MOCLDY 46 32 58 NE10 30.59S 1,730 ELLENSBURG MOCLDY 39 25 57 NW17 30.47R 1,200 MOSES LAKE CLEAR 43 26 51 W7 30.46R 1,880 SPOKANE GEIGER PTCLDY 36 20 52 SW10 30.40R
I-82 North West to South East 600 PM PST MON FEB 24 2020 ELEVA CITY SKY/WX TMP DP RH WIND PRES REMARKS 1,730 ELLENSBURG MOCLDY 39 25 57 NW17 30.47R 1,050 YAKIMA TC MOCLDY 41 20 43 N8 30.46R 720 360 PASCO CLEAR 46 28 49 SW9 30.50R 620 HERMISTON, OR PTCLDY 44 29 55 SW9 30.49R
Hwy97 North to South 600 PM PST MON FEB 24 2020 ELEVA CITY SKY/WX TMP DP RH WIND PRES REMARKS 850 OMAK CLEAR 36 21 54 NW8 30.44R 630 WENATCHEE PTCLDY 41 18 39 W15 30.46R 1,730 ELLENSBURG MOCLDY 39 25 57 NW17 30.47R 1,050 YAKIMA TC MOCLDY 41 20 43 N8 30.46R 1,640 GOLDENDALE* MOCLDY 44 33 65 NW17 30.55S *From Dallesport Airport Elev 240 3,080 REDMOND CLOUDY 41 20 43 NE8 30.46R 4,100 KLAMATH FALLS CLEAR 42 10 27 NW8 30.41R
I-5 North to South 600 PM PST MON FEB 24 2020 ELEVA CITY SKY/WX TMP DP RH WIND PRES REMARKS 150 BELLINGHAM MOCLDY 40 28 62 CALM 30.60S 100 ARLINGTON CLOUDY 42 37 82 S3 30.61F 610 EVERETT CLOUDY 43 32 65 N3 30.60S 30 SEATAC AIRPORT MOCLDY 46 32 58 NE10 30.59S 200 OLYMPIA CLOUDY 45 32 60 W3 30.59 20 KELSO CLOUDY 47 38 71 CALM 30.62R 100 VANCOUVER CLOUDY 47 36 65 VRB5 30.62R 40 PORTLAND CLOUDY 48 36 63 NW3 30.62S 200 SALEM PTCLDY 47 31 53 N3 30.59S 360 EUGENE PTCLDY 44 35 70 N6 30.58S 510 ROSEBURG CLEAR 51 33 50 N5 30.54S 1,300 MEDFORD CLEAR 54 11 18 CALM 30.47S
Data from:
http://www.wrh.noaa.gov/sew/get.php?pil=RWR&sid=OR&version=0&format=printer
http://www.wrh.noaa.gov/sew/get.php?pil=RWR&sid=WA&version=0&format=printer

Current Observations

Washington State Current Weather Observations   …  Oregon State Current Weather Observation



48 Hour Forecast

Seattle  …  Vancouver  …  Portland
————————————————————————————————————————
Bend  …  Spokane  …  Richland  …  Pendleton  …  Blue Mountains I-84  …  Yakima
————————————————————————————————————————
Goldendale, Washington Higher Elevations  …  Dallesport Airport - Goldendale  …  Bingen - White Salmon - Hood River  …  Index


Top of Page